Peru, IN

8:50 AM EDT on May 30, 2017 (GMT -0400)
Grissom Air Reserve Base

Weather History for KGUS - November, 2011

Change the Weather History Date:

Thursday, November 17, 2011

  Actual Average Record
Temperature  
Mean Temperature 31 °F -  
Max Temperature 37 °F 46 °F 73 °F (2016)
Min Temperature 24 °F 32 °F 11 °F (2014)
Degree Days  
Heating Degree Days 34    
Moisture  
Dew Point 16 °F    
Average Humidity 60    
Maximum Humidity 97    
Minimum Humidity 24    
Precipitation  
Precipitation 0.00 in - - ()
Sea Level Pressure  
Sea Level Pressure 30.21 in    
Wind  
Wind Speed 11 mph (West)    
Max Wind Speed 25 mph    
Max Gust Speed 33 mph    
Visibility 10 miles    
Events      
Averages and records for this station are not official NWS values.
T = Trace of Precipitation, MM = Missing Value Source: NWS Daily Summary

Daily Weather History Graph

Daily Weather History Graph

Search for Another Location

Airport or City:

Trip Planner

Search our weather history database for the weather conditions in past years. The results will help you decide how hot, cold, wet, or windy it might be!

Date:

Astronomy

Nov. 17, 2011 Rise Set
Actual Time 7:33 AM EST 5:25 PM EST
Civil Twilight 7:03 AM EST 5:54 PM EST
Nautical Twilight 6:30 AM EST 6:27 PM EST
Astronomical Twilight 5:58 AM EST 7:00 PM EST
Moon 11:45 PM EST (11/17) 12:41 PM EST (11/17)
Length of Visible Light 10h 50m
Length of Day
9h 52m
Waning Gibbous, 60% of the Moon is Illuminated
Nov 17
Waning Gibbous
Nov 18
Last Quarter
Nov 25
New
Dec 2
First Quarter
Dec 10
Full

Hourly Weather History & Observations

Time (EST) Temp. Windchill Dew Point Humidity Pressure Visibility Wind Dir Wind Speed Gust Speed Precip Events Conditions
12:55 AM 35.4 °F 28.4 °F 5.9 °F 29% 30.15 in 10.0 mi WNW 9.2 mph - N/A   Mostly Cloudy
1:55 AM 33.1 °F 26.9 °F 18.1 °F 54% 30.16 in 10.0 mi West 6.9 mph - N/A   Mostly Cloudy
2:55 AM 31.3 °F 24.7 °F 25.7 °F 80% 30.16 in 10.0 mi WSW 6.9 mph - N/A   Clear
3:55 AM 30.0 °F 22.4 °F 22.1 °F 72% 30.16 in 10.0 mi WSW 8.1 mph - N/A   Partly Cloudy
4:55 AM 28.2 °F 21.0 °F 25.5 °F 90% 30.16 in 10.0 mi WSW 6.9 mph - N/A   Scattered Clouds
5:55 AM 30.4 °F 21.5 °F 22.6 °F 73% 30.16 in 10.0 mi WSW 10.4 mph - N/A   Clear
6:55 AM 28.8 °F 19.5 °F 25.0 °F 86% 30.16 in 10.0 mi West 10.4 mph - N/A   Clear
7:55 AM 28.2 °F 19.5 °F 25.3 °F 89% 30.17 in 10.0 mi WSW 9.2 mph - N/A   Clear
8:55 AM 30.2 °F 18.9 °F 19.6 °F 65% 30.19 in 10.0 mi West 16.1 mph - N/A   Clear
9:55 AM 32.2 °F 20.0 °F 13.6 °F 46% 30.21 in 10.0 mi West 20.7 mph 26.5 mph N/A   Clear
10:55 AM 33.3 °F 21.5 °F 8.6 °F 36% 30.21 in 10.0 mi West 20.7 mph 28.8 mph N/A   Clear
11:55 AM 34.7 °F 24.0 °F 7.5 °F 32% 30.21 in 10.0 mi WNW 18.4 mph 33.4 mph N/A   Clear
12:55 PM 36.3 °F 25.2 °F 8.4 °F 31% 30.19 in 10.0 mi West 21.9 mph - N/A   Clear
1:55 PM 37.0 °F 26.2 °F 7.5 °F 29% 30.20 in 10.0 mi West 21.9 mph 28.8 mph N/A   Clear
2:55 PM 36.9 °F 25.1 °F 3.0 °F 24% 30.20 in 10.0 mi WNW 25.3 mph 32.2 mph N/A   Clear
3:55 PM 36.5 °F 25.2 °F 2.7 °F 24% 30.22 in 10.0 mi WNW 23.0 mph 32.2 mph N/A   Clear
4:55 PM 35.1 °F 24.5 °F 5.4 °F 29% 30.24 in 10.0 mi West 18.4 mph 24.2 mph N/A   Clear
5:55 PM 32.4 °F 23.0 °F 12.0 °F 43% 30.26 in 10.0 mi West 12.7 mph - N/A   Clear
6:55 PM 29.8 °F 22.2 °F 20.5 °F 68% 30.27 in 10.0 mi West 8.1 mph - N/A   Clear
7:55 PM 28.0 °F 22.8 °F 21.6 °F 77% 30.28 in 10.0 mi WSW 4.6 mph - N/A   Clear
8:55 PM 26.1 °F 18.4 °F 23.7 °F 91% 30.29 in 10.0 mi SW 6.9 mph - N/A   Clear
9:55 PM 25.5 °F 18.7 °F 24.8 °F 97% 30.30 in 10.0 mi SSW 5.8 mph - N/A   Clear
10:55 PM 26.2 °F 22.1 °F 22.6 °F 86% 30.30 in 10.0 mi South 3.5 mph - N/A   Clear
11:55 PM 24.8 °F 16.9 °F 23.7 °F 96% 30.30 in 10.0 mi SSW 6.9 mph - N/A   Clear